Regional Weather Roundup
Issued by NWS Spokane, WA

Home | Current Version | Previous Version | Text Only | Print | Product List | Glossary On
Versions: 1 2 3 4 5 6 7 8 9 10 11 12 13 14 15 16 17 18 19 20 21 22 23 24 25 26 27 28 29 30 31 32 33 34 35 36 37 38 39 40 41 42 43 44 45 46 47 48 49 50
000
NZUS01 KOTX 041010
RWROTX
EASTERN WASHINGTON/NORTHERN IDAHO ROUNDUP
NATIONAL WEATHER SERVICE, SPOKANE WA
300 AM PDT TUE AUG 04 2015

Note: "fair" indicated few or no clouds below 12,000 feet with no
significant weather and/or obstructions to visibility.

...NORTHEAST WASHINGTON AND NORTHERN IDAHO PANHANDLE...

CITY           SKY/WX    TMP DP  RH WIND       PRES   REMARKS
SPOKANE INTL   PTCLDY    70  46  42 S6        29.87S
SPOKANE DOWNTO PTCLDY    68  47  46 E3        29.87R
COEUR D ALENE  CLOUDY    70  48  46 CALM      29.88S
DEER PARK      PTCLDY    59  47  64 NE6       29.87S
SANDPOINT      CLOUDY    66  52  59 CALM      29.87R
BONNERS FERRY  PTSUNNY   66  54  63 CALM      29.88S

...SOUTHEAST WASHINGTON AND SOUTHERN IDAHO PANHANDLE...

CITY           SKY/WX    TMP DP  RH WIND       PRES   REMARKS
WALLA WALLA    PTCLDY    72  47  40 S10       29.88R
PULLMAN/MOSCOW PTCLDY    61  47  59 CALM      29.93S
LEWISTON       CLEAR     74  48  39 NW3       29.86R
LOWELL           N/A     63  51  65 N3        29.92S

...COLUMBIA BASIN...

CITY           SKY/WX    TMP DP  RH WIND       PRES   REMARKS
EPHRATA        MOCLDY    74  46  36 W8        29.81R
MOSES LAKE     MOCLDY    68  50  52 SW8       29.83R
TRI CITIES     MOCLDY    67  54  63 NE6       29.83S
HERMISTON      PTCLDY    71  44  37 W3        29.85R
PENDLETON      PTCLDY    66  44  45 NW5       29.89S

...EAST SLOPES CASCADES...

CITY           SKY/WX    TMP DP  RH WIND       PRES   REMARKS
THE DALLES     MOCLDY    71  53  52 NW8       29.88R
YAKIMA         MOCLDY    71  51  49 NW6       29.87S
ELLENSBURG     MOCLDY    67  52  58 NW16      29.91R
WENATCHEE      MOCLDY    72  48  42 NW13      29.84S
OMAK           MOCLDY    65  42  43 NW6       29.81R

...SOUTHERN BRITISH COLUMBIA...

CITY           SKY/WX    TMP DP  RH WIND       PRES   REMARKS
PENTICTON      MOCLDY    63  45  51 CALM      29.86R
CRANBROOK      CLOUDY    64  54  68 E2        29.92F

...WESTERN MONTANA...

CITY           SKY/WX    TMP DP  RH WIND       PRES   REMARKS
MISSOULA       CLOUDY    70  42  36 CALM      29.93S

...NEIGHBORING CITIES...

CITY           SKY/WX    TMP DP  RH WIND       PRES   REMARKS
SEATTLE        PTCLDY    60  55  83 SW3       29.99S
CALGARY        MOCLDY    72  45  37 NW8       29.82S



USA.gov is the U.S. government's official web portal to all federal, state and local government web resources and services.